Regional Weather Roundup
Issued by NWS

Home | Current Version | Previous Version | Graphics & Text | Print | Product List | Glossary On
Versions: 1 2 3 4 5 6 7 8 9 10 11 12 13 14 15 16 17 18 19 20 21 22 23 24 25 26 27 28 29 30 31 32 33 34 35 36 37 38 39 40 41 42 43 44 45 46 47 48 49 50
000
ASUS45 KTFX 272210
RWRMT
MONTANA REGIONAL WEATHER ROUNDUP
NATIONAL WEATHER SERVICE GREAT FALLS MT
400 PM MDT TUE SEP 27 2016

NOTE: "FAIR" INDICATES FEW OR NO CLOUDS BELOW 12000 FEET WITH NO
SIGNIFICANT WEATHER AND/OR OBSTRUCTIONS TO VISIBILITY.

MTZ001>007-043-272300-
WEST OF THE DIVIDE

CITY           SKY/WX    TMP DP  RH WIND       PRES   REMARKS
KALISPELL      SUNNY     81  46  29 S9        30.01F
MISSOULA       SUNNY     81  45  28 CALM      30.05F
BUTTE          SUNNY     77  34  21 W6        30.17F
MULLAN PASS    SUNNY     66  44  45 VRB5      30.21S
ANACONDA         N/A     81  32  17 SW6       30.12S
DEER LODGE       N/A     79  37  22 N10       30.13F
EUREKA           N/A     82  39  21 SW7       30.00S
HAMILTON         N/A     81  50  34 N3        30.05F
LIBBY            N/A     81  45  28 SW5       29.99F
PLAINS           N/A     85  47  26 W10       30.00F
RONAN            N/A     83  46  27 CALM      30.08F
THOMPSON FALLS   N/A     84  51  31 SW6       30.03
$$

MTZ008-052>055-272300-
SOUTHWEST MONTANA

CITY           SKY/WX    TMP DP  RH WIND       PRES   REMARKS
BOZEMAN        SUNNY     81  39  22 N5        30.12F
DILLON         SUNNY     78  33  19 MISG      30.14F
W YELLOWSTONE  SUNNY     72  32  23 E5        30.26S
ENNIS          SUNNY     77  28  16 CALM      30.21S
THREE FORKS      N/A     82  82 100 SE3       30.08F HX  96
TWIN BRIDGES     N/A     80  36  20 E6        30.11F
$$

MTZ009-010-012-014-046-048-049-054-272300-
EAST SLOPES AND CENTRAL MONTANA

CITY           SKY/WX    TMP DP  RH WIND       PRES   REMARKS
CUT BANK       SUNNY     81  40  23 W22G28    30.02R
GREAT FALLS    SUNNY     83  40  21 SW7       30.01F
MALMSTROM AFB  SUNNY     82  42  24 SW10G16   30.01F
HELENA         SUNNY     83  43  24 NE6       30.05F
AUGUSTA          N/A     81  37  21 W14G25    30.06S
BOWMANS CRNR     N/A     79  38  23 W12       30.04S
CHOTEAU          N/A     84  39  20 SW12      30.04S
CONRAD           N/A     84  40  21 W15       30.03S
FAIRFIELD        N/A     82  37  19 E5        30.02S
POWER            N/A     82  38  21 SW6G16    30.01F
RAYNESFORD       N/A     80  38  21 W13G23    30.05S
$$

MTZ011-013-016-021-045-047-050-051-272300-
NORTH CENTRAL MONTANA

CITY           SKY/WX    TMP DP  RH WIND       PRES   REMARKS
HAVRE          SUNNY     88  41  19 W20       29.92S
LEWISTOWN      SUNNY     80  38  22 NW8G16    30.05F
N BAR RANCH      N/A     81  36  19 NW13      30.09S
CHINOOK          N/A     88  43  20 W14       29.90F
DENTON           N/A     81  34  18 W9G17     29.99S
GEYSER           N/A     81  37  21 W14G25    30.06S
GRASS RANGE      N/A     80  34  19 W9G17     30.00S
JUDITH GAP       N/A     78  37  22 N17G24    30.08S
ROY              N/A     81  42  25 MISG      30.00S
STANFORD         N/A     79  38  22 NW15G21   30.06F
WINIFRED         N/A     80  38  22 MISG      30.02S
$$

MTZ017>020-022>027-061-062-272300-
NORTHEAST MONTANA

CITY           SKY/WX    TMP DP  RH WIND       PRES   REMARKS
GLASGOW        SUNNY     85  46  25 W12G24    29.90S
JORDAN           N/A     86  39  19 NW10      29.94F
SIDNEY         SUNNY     80  55  42 S5        29.91S
WOLF POINT     SUNNY     84  47  27 W9        29.90S
PLENTYWOOD       N/A     81  48  32 SE9       29.89F
POPLAR           N/A     81  48  32 W12       29.90F
SCOBEY           N/A     83  45  26 W10       29.90R
$$

MTZ028>42-056>058-272300-
SOUTHCENTRAL AND SOUTHEAST MONTANA

CITY           SKY/WX    TMP DP  RH WIND       PRES   REMARKS
BAKER          SUNNY     79  46  31 NW14      29.99S
BILLINGS       SUNNY     85  36  17 W12       30.03F
LIVINGSTON     SUNNY     82  31  15 NW8       30.10F
MILES CITY     SUNNY     83  43  24 W10       29.96F
BIG TIMBER     SUNNY     81  34  18 W15       30.11S
EKALAKA          N/A     77  41  27 W15       30.00S
FORSYTH          N/A     82  45  26 SW7       29.97S
HARLOWTON        N/A     81  35  19 W22G28    30.06F
LAUREL           N/A     84  40  21 SW7       30.02F
ROUNDUP          N/A     84  42  22 NW5       29.93S
$$

REGIONAL REPORTS...DAKOTAS

CITY           SKY/WX    TMP DP  RH WIND       PRES   REMARKS
WILLISTON      SUNNY     79  49  34 SW6       29.91F
MINOT          SUNNY     72  40  31 VRB5      29.93S
DICKINSON      HAZE      77  44  30 NW7       29.93S VSB 1/2
BEACH            N/A     77  45  31 NW12      29.99S
CROSBY           N/A     77  45  31 S5        29.93S
WATFORD CITY     N/A     77  48  36 W5        29.92F
BISMARCK       SUNNY     72  42  34 N8        29.93S
GRAND FORKS    MOSUNNY   59  44  57 N21G26    29.90R
FARGO          SUNNY     62  40  44 N17G28    29.88R
BUFFALO SD       N/A     82  39  21 NW18G26   29.91S
RAPID CITY     SUNNY     83  41  22 N20       29.98F
$$

REGIONAL REPORTS...WYOMING/IDAHO/WASHINGTON

CITY           SKY/WX    TMP DP  RH WIND       PRES   REMARKS
GILLETTE       SUNNY     79  40  24 NW12      30.08S
SHERIDAN       SUNNY     82  43  25 NW12      30.06S
BUFFALO WY     SUNNY     80  36  20 N10       30.13S
CODY           SUNNY     77  43  29 E9        30.14S
YELLOWSTONE LA   N/A     64  45  49 VRB3      30.35S
IDAHO FALLS    SUNNY     76  38  25 VRB3      30.16F
SALMON         SUNNY     75  43  31 W3        30.09F
BOISE          SUNNY     83  43  24 VRB3      30.03F
SPOKANE        MOSUNNY   79  41  25 W9G22     30.03F
$$

REGIONAL REPORTS...ALBERTA

CITY           SKY/WX    TMP DP  RH WIND       PRES   REMARKS
EDMONTON       MOSUNNY   59  30  33 NW15      30.09R
CALGARY        PTSUNNY   52  30  43 N18G25    30.16R
LETHBRIDGE     MOSUNNY   66  39  37 N16G25    30.08R
MEDICINE HAT   SUNNY     70  45  40 N21G26    29.99R
WATERTON GATE    N/A     63  43  48 NE10        N/A
MILK RIVER       N/A     68  46  45 N26         N/A
$$

REGIONAL REPORTS...SASKATCHEWAN

CITY           SKY/WX    TMP DP  RH WIND       PRES   REMARKS
SWIFT CURRENT  SUNNY     81  45  28 NW17G25   29.89R
REGINA         SUNNY     79  48  34 S10       29.86S
SASKATOON      MOSUNNY   75  48  38 W12       29.86R
CYPRESS HILLS    N/A     72  43  35 N12G21      N/A
ROCKGLEN         N/A     79  45  29 NW10G17     N/A
ASSINIBOIA       N/A     57  37  47 NW15        N/A
$$



USA.gov is the U.S. government's official web portal to all federal, state and local government web resources and services.